Other Public Products
Issued by NWS Grand Forks, ND

Home | Current Version | Previous Version | Graphics & Text | Print | Product List | Glossary On
Versions: 1 2 3 4 5 6 7 8 9 10 11 12 13 14 15 16 17 18 19 20 21 22 23 24 25 26 27 28 29 30 31 32 33 34 35 36 37 38 39 40 41 42 43 44 45 46 47 48 49 50
000
FPUS83 KFGF 292031
OPUFGF
PRAIRIE TO PINES WEATHER ROUNDUP
NATIONAL WEATHER SERVICE EASTERN NORTH DAKOTA/GRAND FORKS ND
300 PM CDT SUN MAY 29 2016

 **SATELLITE DATA USED TO AUGMENT SKY COVER AT AUTOMATED STATIONS**
 *****  WEATHER ACROSS EASTERN NORTH DAKOTA  *****

CITY           SKY/WX    TMP DP  RH WIND       PRES   REMARKS
GRAND FORKS    MOSUNNY   74  52  46 NW10G20   29.92S
GRAND FORKS AF SUNNY     75  48  38 NW18G25   29.93S
GRAND CITY NWS   N/A     75 N/A N/A NW16        N/A
BUXTON           N/A     76  48  36 NW13        N/A
DEVILS LAKE    MOSUNNY   73  41  31 NW18G26   29.95F
FARGO          SUNNY     77  46  33 W17G25    29.94F
WAHPETON ARPT  PTCLDY    73  46  38 NW15G22   29.96S
$$

 *****  WEATHER ACROSS CENTRAL AND WESTERN NORTH DAKOTA  *****

CITY           SKY/WX    TMP DP  RH WIND       PRES   REMARKS
JAMESTOWN      MOSUNNY   73  44  35 W13G25    29.97S
BISMARCK       MOSUNNY   76  43  30 VRB6G17   30.00F
MINOT          MOSUNNY   77  38  24 W14       29.96S
MINOT AFB      MOSUNNY   73  39  29 W15G25    29.94F
GARRISON         N/A     73  40  30 W8G20     29.98F
WILLISTON      SUNNY     76  35  22 W10G18    29.96F
DICKINSON      MOSUNNY   72  38  29 W8        29.97F
HETTINGER      MOSUNNY   77  41  27 W9        30.01F
$$

 *****  OTHER OBSERVATIONS NORTHEAST NORTH DAKOTA  *****

CITY           SKY/WX    TMP DP  RH WIND       PRES   REMARKS
WALHALLA       FAIR      70  66  88 NW14G24   29.92S
LANGDON        FAIR      72  50  46 NW15G23   29.94S
CAVALIER       FAIR      68  54  60 NW6       29.92S
GRAFTON        FAIR      72  57  60 NW6G15    29.94S
CANDO          MOCLDY    73  43  33 W18       29.96S
FORT TOTTEN      N/A     72  45  37 NW6       29.95
ROLLA            N/A     70  37  30 NW17G26   29.95S
RUGBY          FAIR      72  39  30 W13G22    29.95S
 ***** THE ABOVE OBSERVATIONS ARE NON NWS ARE NOT QUALITY
        CONTROLLED AND MAY MIS-REPORT RAIN FOR SNOW...
$$

 *****  OTHER OBSERVATIONS SOUTHEAST NORTH DAKOTA *****

CITY           SKY/WX    TMP DP  RH WIND       PRES   REMARKS
COOPERSTOWN    NOT AVBL
VALLEY CITY    FAIR      75  45  33 NW18G24   29.99S
OAKES            N/A    N/A N/A N/A MISG        N/A
GWINNER        FAIR      77  45  31 NW18G24   29.99S
BUFFALO          N/A     75  37  25 NW14        N/A
WYNDMERE         N/A     79  46  31 NW16        N/A
 ***** THE ABOVE OBSERVATIONS ARE NON NWS ARE NOT QUALITY
       CONTROLLED AND MAY MIS-REPORT RAIN FOR SNOW...
$$

  *****  WEATHER ACROSS NORTHERN MINNESOTA  *****

CITY           SKY/WX    TMP DP  RH WIND       PRES   REMARKS
FLAG ISLAND    PTSUNNY   61  54  77 NW18      29.87S
WARROAD        PTSUNNY   64  57  77 W9        29.90R
ROSEAU         MOSUNNY   66  57  72 W12G20    29.91R
HALLOCK        MOSUNNY   70  54  56 NW13      29.91S
THF RVR FALLS  PTSUNNY   66  55  68 NW12      29.95S
HALSTAD        NOT AVBL
FOSSTON        MOSUNNY   66  55  68 W12G18    29.95S
BAUDETTE       PTSUNNY   64  55  72 W8        29.89S
WASKISH        MOSUNNY   66  57  72 W12       29.91S
CROOKSTON      PTSUNNY   70  55  60 NW10      29.94S
$$
  *****  WEATHER ACROSS CENTRAL AND WEST MINNESOTA  *****

CITY           SKY/WX    TMP DP  RH WIND       PRES   REMARKS
BEMIDJI        PTSUNNY   69  53  56 W16       29.93F
PARK RAPIDS    MOSUNNY   72  54  53 W14       29.95S
WADENA         SUNNY     72  54  53 NW14      29.95F
DETROIT LAKES  SUNNY     68  54  60 W7        29.97S
MOORHEAD       SUNNY     73  50  43 W16G23    29.95S
FERGUS FALLS   SUNNY     73  52  46 NW14G24   29.92F
ELBOW LAKE     FAIR      73  56  57 NW12      29.97F
MORRIS MN      MOSUNNY   75  54  46 NW14G20   29.95F
STAPLES        MOSUNNY   72  52  49 W16G22    29.95S
WHEATON        SUNNY     79  50  36 NW18G29   29.98S
$$
  *****  WEATHER ELSEWHERE ACROSS MINNESOTA  *****

CITY           SKY/WX    TMP DP  RH WIND       PRES   REMARKS
DULUTH         PTSUNNY   66  54  65 NW16G25   29.88S
INTRNTL FALLS  CLOUDY    61  54  77 W15       29.88R
ELY            PTSUNNY   61  55  82 W12       29.86R
CLOQUET        CLOUDY    68  52  56 W18G26    29.90R
BRAINERD       MOSUNNY   72  54  53 W15G22    29.94F
HIBBING        PTSUNNY   65  55  70 NW14      29.89R
ALEXANDRIA     CLOUDY    66  58  75 W8        29.99S
SAINT CLOUD    MOSUNNY   75  56  51 W14G21    29.95F
MINNEAPOLIS    CLOUDY    76  57  51 NW14      29.96S
$$

  *****  WEATHER ACROSS SOUTH DAKOTA  *****

CITY           SKY/WX    TMP DP  RH WIND       PRES   REMARKS
SIOUX FALLS    MOSUNNY   77  52  41 NW8       30.04F
BROOKINGS      SUNNY     74  49  41 NW12G21   30.03F
WATERTOWN      SUNNY     77  49  37 NW14      30.02F
HURON          SUNNY     77  50  38 W5        30.03S
SISSETON         N/A     79  43  27 NW18G31   29.97S
ABERDEEN       MOSUNNY   79  46  31 W8        30.00F
MITCHELL       SUNNY     78  49  35 CALM      30.04F
PIERRE         SUNNY     76  47  35 VRB5      30.02F
MOBRIDGE       SUNNY     77  50  38 S7        30.00F
RAPID CITY     MOSUNNY   74  50  42 SE13      30.04F
$$

  *****  SOME WEATHER IN NEARBY STATES *****

CITY           SKY/WX    TMP DP  RH WIND       PRES   REMARKS
GLASGOW MT     SUNNY     71  36  27 W10       29.95F
GREAT FALLS MT MOSUNNY   70  33  25 SW16      29.96F
CHEYENNE WY    PTSUNNY   70  36  28 W12       30.15F
SCOTTSBLUFF NE PTSUNNY   76  42  29 S7        30.07F
OMAHA NE       MOSUNNY   83  56  39 W7        30.04F
DES MOINES IA  MOSUNNY   82  53  36 W9        30.05F
DAVENPORT IA   MOSUNNY   79  57  46 W12G20    30.04F
CHICAGO IL     MOSUNNY   78  60  53 W14G21    30.00F
EAU CLAIRE WI  MOSUNNY   75  59  57 W16       29.92F
LA CROSSE WI   MOSUNNY   80  57  45 NW16G22   29.95S
$$

  *****  SOME NATIONAL WEATHER *****

CITY           SKY/WX    TMP DP  RH WIND       PRES   REMARKS
LA GUARDIA NY  PTSUNNY   81  70  69 S15       30.08F
RALEIGH NC     CLOUDY    74  71  91 VRB6      30.03F
ATLANTA GA     PTSUNNY   88  58  36 N13       30.07F
NEW ORLEANS LA PTSUNNY   88  66  48 N10       30.08F HX  90
OKLAHOMA CITY  MOSUNNY   87  56  34 VRB3      30.07F
ALBUQUERQUE NM MOSUNNY   83  14   7 S22G30    30.12F
SALT LAKE CITY PTSUNNY   78  40  25 N9        30.03F
LOS ANGELES CA MOSUNNY   67  53  61 W10       30.01F
BOISE ID       SUNNY     78  28  16 W6        29.97F
SEATTLE WA     CLOUDY    57  47  69 N14       30.17R
$$

*** WEATHER ACROSS MANITOBA...SASKATCHEWAN AND ONTARIO ***
                ***ONTARIO***

CITY           SKY/WX    TMP DP  RH WIND       PRES   REMARKS
GERALDTON      DRZL/FOG  57  55  94 N6        29.73S VSB 1
THUNDER BAY    LGT RAIN  64  59  82 E3        29.73F
SIOUX LOOKOUT  DRIZZLE   55  54  94 NW7       29.80R FOG
TORONTO        CLOUDY    84  63  48 SW20      29.96F
BIG TROUT LK   LGT RAIN  45  41  87 NE10G22   29.92F
PICKLE LAKE    CLOUDY    50  45  81 NE3       29.80R
DRYDEN         LGT RAIN  57  55  94 W7        29.82
KENORA         DRIZZLE   57  54  88 W10       29.86S
$$
                *** MANITOBA***

CITY           SKY/WX    TMP DP  RH WIND       PRES   REMARKS
BRANDON        PTSUNNY   70  52  52 W12G18    29.91F
DAUPHIN        PTSUNNY   61  52  72 N14       29.90R THUNDER
ISLAND LAKE    LGT RAIN  57  52  82 NE6       29.91F
PILOT MOUND      N/A     66  52  59 NW6         N/A
THE PAS        CLOUDY    50  45  81 N5        29.93S
THOMPSON       LGT RAIN  48  46  93 NE9       29.97S
WINNIPEG       PTSUNNY   66  54  63 NW16      29.90S
LYNN LAKE      LGT RAIN  48  46  93 E8        29.99S
CHURCHILL      PTSUNNY   32  28  86 E16       30.19F WCI  21
GILLAM         LGT RAIN  46  39  76 NE9G17    30.04F
$$
                ***SASKATCHEWAN***

CITY           SKY/WX    TMP DP  RH WIND       PRES   REMARKS
ESTEVAN        MOSUNNY   72  43  35 W13G22    29.94F
KINDERSLEY     MOSUNNY   66  36  32 SW3       29.86S
LLOYDMINSTER   PTSUNNY   61  48  63 N7        29.88R
PRINCE ALBERT  CLOUDY    55  50  82 E7        29.88S
REGINA         PTSUNNY   70  39  32 SW16G28   29.90F
YORKTON        PTSUNNY   66  46  48 NW7       29.87F
N. BATTLEFORD  MOSUNNY   64  48  55 VRB9      29.89S   C1F1C2F2C3F3C4F4C5F5C6F6C7F7C8F8C9F9CaFaCbFbCcFcCdFdCe!



USA.gov is the U.S. government's official web portal to all federal, state and local government web resources and services.